Theta_e
309 309 308 307 306 305 307 308 307 309 314 309 306 308 313 308 303 300 315 318 316 317 321 323 325 327 327 329 331 334 337 337 336 336 335 337 338 339 339 342 343 342 343 345 346 346 347 348 348 349 350 352 355 357 357 358 359 359 361 360 360 360 360 360 361 363 363 364 365 365 364 365 363 361 361 362 363 363 364 362 359 361 362 361 361 361 362
308 309 308 309 306 305 305 306 307 309 311 315 315 313 313 310 312 316 318 319 316 320 322 324 325 329 330 331 334 334 336 335 334 336 336 336 337 339 340 341 341 342 343 344 346 347 348 348 348 347 349 352 353 353 355 357 358 360 360 360 360 360 359 360 362 363 363 364 364 364 364 364 365 364 362 363 361 362 361 362 362 363 364 363 361 360 360
305 307 309 308 307 306 305 306 308 308 310 313 316 316 317 318 317 318 318 317 316 322 326 326 328 330 331 331 331 331 333 334 331 331 332 333 336 338 339 340 340 341 341 344 346 346 347 347 349 350 352 354 354 355 356 357 358 360 360 359 359 359 359 361 362 363 363 362 363 363 364 364 365 365 365 364 364 363 363 362 363 365 364 362 361 359 359
302 305 306 305 305 306 306 306 305 306 307 308 314 314 317 316 314 317 317 315 315 322 327 327 328 328 328 327 328 329 330 332 332 331 332 331 332 333 334 337 340 341 342 343 344 345 348 349 349 350 352 354 354 354 357 358 359 360 360 359 359 359 360 361 361 360 359 360 361 362 363 363 365 366 366 366 365 365 363 361 364 362 361 361 362 361 359
302 307 307 304 304 305 304 306 307 306 307 311 317 319 319 319 320 316 313 313 321 323 327 324 325 326 325 325 327 328 330 331 331 330 331 332 332 333 334 336 338 339 341 343 345 346 347 349 350 353 355 353 353 355 357 359 361 359 359 359 359 359 360 361 361 360 358 357 358 360 361 363 364 364 364 364 364 364 362 363 362 362 363 360 361 361 360
300 304 303 306 300 294 298 312 313 309 305 307 309 312 314 316 320 318 322 321 324 324 324 322 322 323 324 325 327 330 329 329 330 330 331 332 333 334 335 336 338 339 342 343 344 344 345 348 350 352 354 355 356 358 359 360 358 359 360 359 359 358 358 358 358 359 359 359 358 359 360 361 362 362 362 362 363 363 363 364 362 361 360 360 360 362 361
302 302 302 300 293 294 310 316 315 315 312 311 309 311 314 315 318 322 322 323 323 323 325 324 324 325 326 328 328 328 330 331 330 329 330 330 331 332 334 335 336 337 339 342 344 345 346 347 349 350 352 355 356 356 356 356 359 358 358 357 356 356 355 356 356 355 356 357 356 356 356 357 357 358 359 361 361 363 363 362 361 361 360 360 361 360 359
301 298 298 290 292 305 307 309 309 313 313 312 311 310 312 314 317 318 321 322 324 323 323 324 326 326 326 327 328 329 330 330 329 328 328 329 330 329 331 332 332 334 335 337 340 343 345 345 346 347 348 351 354 353 355 355 356 357 356 355 354 355 353 353 353 354 354 353 351 351 353 355 356 355 356 358 360 360 360 361 361 362 362 361 360 360 361
296 297 298 297 303 304 306 306 306 309 307 309 308 306 310 314 316 318 320 322 324 323 324 324 324 326 326 323 323 328 328 328 329 328 328 328 328 329 330 331 331 333 335 336 338 340 341 341 341 342 342 343 345 347 349 351 353 353 352 351 351 351 351 351 351 349 348 348 349 350 351 352 355 356 355 353 353 354 354 356 357 358 357 357 357 357 357
303 299 298 298 297 295 302 307 310 310 311 313 315 312 309 314 319 320 322 321 322 323 325 325 325 325 322 317 318 324 326 327 327 327 327 328 328 329 329 331 333 334 336 337 336 336 337 339 341 342 343 344 343 344 346 348 349 349 350 350 351 351 349 349 349 349 349 350 349 348 348 349 350 351 351 352 350 349 350 350 352 355 354 353 352 351 350
300 299 295 296 294 298 306 306 309 312 313 312 315 310 305 315 321 324 324 322 325 324 324 324 325 321 315 313 318 323 325 325 325 325 325 326 327 328 329 329 329 331 333 334 335 336 336 335 337 340 342 343 342 341 343 344 345 346 346 344 344 345 345 345 345 346 348 348 348 348 347 347 347 346 348 349 349 348 346 347 349 348 349 348 347 348 348
302 300 296 295 300 300 305 309 311 313 315 313 310 299 303 313 319 324 325 324 324 323 323 325 323 320 314 314 319 325 325 325 324 324 324 324 325 326 328 329 330 331 332 332 332 332 332 333 337 338 340 340 338 338 338 340 340 341 342 342 342 343 343 344 345 346 346 345 345 347 346 347 347 347 348 348 349 349 346 344 344 347 345 345 345 343 342
301 299 299 300 302 308 310 311 314 314 314 309 301 294 306 318 321 323 324 323 323 324 323 324 319 321 322 323 325 326 325 324 324 325 325 325 326 326 327 328 331 330 330 330 329 330 331 333 335 337 337 335 333 333 333 333 333 335 337 340 342 342 343 343 343 343 344 344 345 346 346 347 348 348 348 348 346 345 345 346 345 344 341 340 339 337 336
300 301 298 299 303 307 313 315 314 315 306 298 298 310 315 319 320 322 324 323 323 324 324 324 323 323 324 324 324 324 324 323 324 324 325 325 325 326 328 329 329 328 328 329 329 330 332 333 333 333 332 330 329 329 329 328 330 334 335 337 339 338 338 339 341 342 344 346 347 346 345 346 345 345 346 347 346 347 347 345 343 340 338 337 334 331 330
300 301 299 296 291 306 313 313 311 314 306 308 315 320 321 323 322 322 323 324 325 325 324 325 324 324 324 324 323 323 324 324 324 324 325 325 325 325 325 326 327 327 326 326 325 326 328 331 332 332 331 329 329 329 327 328 330 332 334 335 334 334 336 337 337 338 339 341 341 343 343 344 343 342 344 346 346 346 345 341 339 337 336 333 329 327 326
299 298 297 296 307 312 314 313 308 312 316 320 323 323 319 323 324 323 323 324 326 326 325 325 325 324 324 323 323 324 324 324 324 324 325 326 326 325 325 326 326 326 325 325 324 325 325 327 328 330 328 328 328 327 327 332 332 332 331 332 333 333 334 333 333 334 336 336 336 337 339 340 341 340 341 342 343 343 341 338 335 333 331 330 329 326 323
304 302 306 312 314 314 315 315 317 319 321 322 325 326 324 322 322 325 323 324 326 327 327 327 326 324 324 323 323 323 323 324 324 324 324 324 324 324 324 324 326 326 325 324 324 324 325 326 327 327 327 326 326 324 328 333 333 332 332 333 333 332 331 331 330 330 330 330 330 331 332 336 338 339 339 338 336 337 338 335 335 333 333 333 329 327 325
310 311 312 314 315 316 318 318 318 321 323 325 327 327 324 325 325 326 324 325 326 328 329 326 325 324 323 322 323 323 323 322 324 325 325 325 325 324 324 325 326 325 324 324 324 324 325 325 325 328 328 327 325 326 330 333 333 333 333 334 333 333 332 332 332 331 328 327 326 326 327 330 334 337 336 335 334 334 335 334 333 333 331 330 328 326 324
305 301 313 314 314 316 318 321 323 324 326 325 327 327 327 326 327 327 328 328 327 327 329 327 326 324 324 323 324 324 324 323 323 322 323 324 324 323 323 325 326 325 324 323 323 324 324 326 326 326 327 327 330 331 331 331 332 335 335 334 333 335 335 334 333 331 329 325 323 323 323 324 326 329 333 334 336 335 334 334 333 333 331 330 328 327 325
307 308 313 314 315 316 317 319 324 323 325 327 328 328 329 329 329 328 328 327 326 327 326 327 325 323 324 323 323 323 323 323 323 323 324 324 323 323 324 325 326 325 325 324 325 325 325 327 328 328 327 328 330 332 331 332 333 335 335 334 332 332 332 333 333 331 329 328 325 322 320 319 319 321 324 327 326 323 323 326 331 331 331 330 329 328 326
309 312 313 314 316 318 320 321 322 325 326 326 327 328 328 328 327 327 327 328 326 326 326 326 325 324 324 325 325 325 325 324 324 324 325 325 325 325 325 326 327 326 326 325 326 325 326 328 328 328 328 329 330 331 332 334 336 334 332 333 332 330 330 330 329 330 326 324 324 322 319 317 314 312 313 317 324 324 321 319 320 328 333 331 330 327 327
306 308 311 314 309 309 316 321 323 323 326 327 326 327 327 327 327 327 325 326 327 326 326 325 324 323 325 326 327 326 327 326 324 325 325 326 326 325 326 327 328 328 328 327 326 327 328 330 329 329 329 330 331 330 333 334 335 334 334 333 332 330 330 329 328 327 326 324 325 324 322 319 318 314 308 301 304 319 321 313 305 302 311 332 329 327 322
304 314 317 319 320 319 320 323 322 324 326 328 326 326 326 327 329 328 326 325 326 326 327 328 326 326 327 326 328 327 326 326 325 326 327 325 326 326 327 327 328 328 329 329 328 327 328 330 329 329 329 330 331 331 333 334 334 333 334 333 332 331 330 329 327 327 326 325 326 326 326 325 324 321 318 314 298 297 304 305 301 297 299 302 307 313 323
312 318 319 318 320 317 319 321 322 323 325 328 325 326 328 329 329 329 329 328 326 326 326 326 327 327 326 327 327 326 326 326 326 325 327 328 328 328 330 328 329 328 328 328 328 327 329 329 329 329 328 329 331 330 332 333 333 333 333 333 331 330 328 329 329 328 327 326 326 325 326 327 328 326 323 320 317 302 296 298 298 296 296 297 299 302 307
313 318 320 319 321 321 321 321 321 323 323 327 326 326 327 327 328 330 329 328 329 327 325 324 325 328 327 327 328 327 326 325 326 327 326 327 327 328 328 328 327 327 328 329 329 329 330 329 329 328 328 329 331 331 332 332 332 332 332 331 331 332 333 332 330 329 327 328 327 327 326 327 327 328 326 324 320 317 313 297 295 295 295 294 294 295 295
319 318 319 320 321 319 320 320 320 322 323 325 325 325 326 327 327 328 328 328 328 328 327 325 325 327 328 327 328 328 328 326 326 326 326 326 326 326 327 328 328 329 329 330 330 330 330 330 329 328 327 327 329 330 328 330 331 331 332 332 333 332 332 332 331 329 327 328 327 327 328 328 327 326 326 326 324 322 319 318 318 308 299 295 294 295 292
320 321 319 318 316 317 320 320 319 322 323 325 326 325 325 325 324 324 325 326 327 328 328 328 329 329 330 330 329 328 327 328 328 328 326 325 325 326 325 327 328 329 329 329 329 329 330 329 328 328 327 327 329 331 331 331 330 330 331 333 332 331 332 332 331 329 327 328 327 327 327 328 327 325 325 326 325 324 323 322 321 319 318 317 303 295 306
320 322 323 317 316 316 318 319 322 322 323 323 322 320 321 322 323 323 323 323 324 325 326 328 328 327 326 327 327 326 327 328 328 329 328 328 328 329 329 329 328 328 328 328 329 331 330 329 327 326 327 328 329 330 328 328 329 328 328 329 329 329 329 330 331 331 331 330 330 330 329 329 329 326 326 325 324 323 322 324 323 321 321 321 321 306 295
320 321 320 322 324 322 321 321 321 320 319 319 320 320 321 321 320 320 320 321 322 323 322 322 324 324 323 323 325 325 325 326 326 327 327 328 328 329 330 330 329 328 328 328 329 330 329 328 327 326 327 329 328 329 328 327 327 326 326 325 325 326 328 329 330 330 331 331 331 331 330 330 331 331 328 327 326 324 324 323 323 323 322 322 321 320 318
320 319 320 320 319 319 319 318 317 316 315 316 317 318 319 318 316 316 317 318 320 319 320 321 321 320 320 320 321 322 321 323 325 327 327 327 327 327 328 329 329 329 328 327 328 329 329 329 329 328 327 327 327 328 327 328 327 328 327 327 326 325 326 329 330 330 329 329 326 327 328 327 330 330 329 329 328 326 324 324 323 322 321 322 321 320 320
318 319 320 319 320 320 320 318 317 315 315 316 316 315 316 316 314 313 315 317 318 318 320 320 320 319 319 319 321 322 324 325 325 325 325 327 327 326 327 330 326 324 325 326 328 328 329 328 328 328 329 329 328 328 327 326 327 326 325 327 327 324 323 323 324 328 327 326 325 325 324 323 322 323 323 324 326 327 326 326 325 323 323 322 321 321 321
316 317 317 318 319 320 319 317 315 314 314 315 314 313 313 313 312 312 313 314 316 318 319 318 317 317 319 320 322 322 323 323 322 322 322 324 326 326 325 326 329 326 327 327 327 327 328 327 327 327 330 330 329 329 329 327 327 326 325 324 326 326 325 324 325 325 326 326 325 323 322 320 320 320 320 321 321 322 324 325 325 325 324 323 323 324 323
315 313 314 315 316 317 316 315 314 313 314 314 315 315 316 316 314 313 314 315 315 317 317 317 318 318 319 318 319 319 319 319 319 319 319 321 322 323 323 323 322 324 327 327 327 327 327 326 326 329 330 329 330 329 327 327 327 326 326 325 325 325 325 324 323 324 326 325 323 322 322 322 321 321 320 321 321 321 321 322 323 323 324 324 324 326 324
318 317 317 317 317 315 315 314 315 314 314 317 317 316 316 316 317 316 315 316 315 315 315 316 317 317 317 317 318 318 317 315 314 315 317 318 321 322 321 319 322 322 323 324 327 327 326 327 328 329 329 329 330 329 329 327 327 327 327 327 325 324 325 325 324 324 323 323 323 325 325 324 323 321 321 321 320 320 320 320 320 321 321 322 325 326 314
324 324 322 319 320 320 320 317 315 314 313 312 313 314 316 316 316 316 316 315 315 316 317 317 317 317 317 317 317 316 314 312 313 315 317 318 320 321 319 323 326 325 323 322 323 323 324 324 325 328 331 329 328 327 328 328 328 327 327 327 327 325 325 324 323 324 322 323 323 322 322 322 321 321 322 322 321 321 320 320 320 320 320 321 323 324 320
321 320 320 320 320 320 319 318 316 315 314 315 315 314 314 314 315 315 315 317 318 317 316 316 316 316 316 316 315 314 314 315 316 316 317 317 319 320 322 323 323 321 321 320 322 323 324 325 322 324 330 328 327 328 329 329 328 327 328 326 325 324 324 324 324 324 324 323 322 323 323 322 322 323 323 323 322 322 320 320 320 320 319 320 321 322 322
322 321 319 319 319 319 318 318 317 316 316 316 316 315 314 314 315 317 318 315 315 316 316 316 315 314 314 317 316 316 316 315 315 315 316 317 318 319 318 317 318 318 317 316 321 324 325 326 324 323 327 329 329 330 328 326 328 327 327 326 324 324 323 323 323 323 322 324 322 323 321 321 322 322 322 322 321 321 320 319 320 320 319 319 320 321 320
320 321 320 319 318 318 317 317 317 317 317 316 316 316 316 315 315 316 315 316 316 316 317 316 316 317 316 316 315 314 314 315 315 315 316 317 317 315 314 313 313 314 312 317 321 323 324 324 320 323 325 324 324 324 324 327 326 328 327 325 324 324 323 322 321 322 321 322 322 322 321 322 321 320 321 321 321 320 319 320 319 319 319 319 319 320 319
317 319 319 318 318 318 316 315 315 316 316 315 315 316 316 316 316 316 316 316 316 316 316 317 316 315 315 314 313 313 313 314 314 314 313 314 315 312 311 315 319 319 319 320 321 320 322 322 322 323 323 321 321 322 322 322 323 326 325 325 325 324 323 322 321 321 321 322 322 320 321 320 320 320 321 320 320 319 318 318 319 318 318 318 317 317 318
318 317 316 315 314 315 314 313 313 314 317 318 317 315 314 315 315 316 315 314 315 317 317 316 315 313 313 313 312 311 312 313 313 313 313 314 313 311 311 314 316 317 318 317 320 321 319 316 319 320 320 319 319 321 320 318 318 321 323 323 322 321 322 321 321 320 321 321 319 319 320 320 320 319 318 318 319 318 318 319 318 318 317 317 318 318 316
319 318 316 316 315 314 314 313 313 314 315 316 319 317 316 316 316 315 314 314 315 317 317 316 315 314 313 312 312 311 313 312 313 313 314 312 310 309 308 309 315 317 319 319 318 318 316 317 317 318 317 318 319 317 320 317 318 321 321 321 320 320 319 319 319 319 319 319 319 319 319 319 318 318 317 317 317 317 319 318 318 317 317 316 317 316 316
319 318 316 316 315 315 315 315 314 313 314 316 316 316 316 316 316 316 316 316 315 316 316 316 315 314 313 314 313 313 312 312 313 313 314 311 309 309 307 311 316 318 319 317 315 316 317 317 316 315 318 318 318 316 316 318 318 318 317 318 319 319 319 318 318 318 320 319 318 318 318 317 316 317 316 316 316 317 316 317 317 317 317 317 316 315 315
318 317 316 315 315 315 313 313 313 314 314 314 315 315 315 316 317 316 315 316 315 315 315 315 315 314 314 314 312 311 311 312 312 312 313 314 315 315 312 315 317 320 317 317 317 316 316 316 316 316 315 316 317 316 315 317 317 317 317 317 317 318 317 317 317 317 317 317 316 317 316 316 315 315 314 314 314 315 315 315 315 315 316 316 317 315 315
318 318 317 316 315 315 315 314 315 314 313 313 314 314 315 316 316 315 315 314 314 314 313 313 314 313 313 313 311 310 310 310 310 311 309 310 311 315 317 316 318 318 314 316 315 314 315 315 315 315 314 314 313 312 316 316 316 316 316 316 315 316 315 315 315 316 315 316 315 316 315 315 314 315 315 314 313 314 313 313 313 314 315 315 315 315 315
318 318 318 317 316 315 314 314 314 314 314 314 313 313 315 316 316 316 315 315 314 314 314 314 314 313 312 312 311 310 311 311 311 311 308 307 306 309 316 315 317 318 316 313 315 315 315 316 315 313 313 312 312 312 316 315 315 314 314 314 314 314 315 314 314 315 315 315 315 314 314 314 315 315 315 314 312 312 313 313 314 313 313 313 313 313 312
318 318 318 317 315 315 316 316 317 316 313 312 312 313 315 316 316 316 316 315 314 314 315 315 314 313 313 312 313 314 312 313 313 314 314 312 310 314 316 317 318 316 313 313 315 314 314 312 311 311 310 310 310 312 313 312 313 314 313 313 313 313 314 314 315 314 314 313 313 313 314 314 313 313 314 314 314 314 312 312 312 313 312 311 310 310 310
317 317 317 317 317 316 316 315 315 313 312 312 311 311 313 315 315 315 315 316 316 315 315 314 313 314 315 314 312 311 309 310 312 314 315 316 315 315 315 316 316 314 314 314 313 313 312 311 310 309 308 309 309 312 311 312 312 311 311 311 311 312 312 312 312 312 312 313 312 312 311 311 312 312 312 311 311 312 311 311 311 311 310 308 308 307 307
316 316 316 316 315 314 314 313 312 311 312 312 313 313 312 313 314 315 315 315 315 314 314 314 314 315 315 315 315 314 313 311 307 310 314 315 316 317 317 316 315 314 312 311 309 310 309 308 307 307 306 306 308 310 309 310 309 310 310 310 310 310 309 309 309 309 309 309 310 311 311 311 312 311 311 311 311 312 311 311 310 310 310 310 310 310 310
317 316 316 315 314 313 313 313 312 312 313 315 315 313 313 313 313 313 312 313 313 312 311 312 313 313 315 315 315 314 315 315 313 310 315 316 316 316 316 315 313 311 311 310 308 308 309 307 307 307 306 307 309 309 309 309 308 308 308 308 308 308 308 308 309 309 307 307 308 308 310 310 310 310 310 310 310 310 310 310 310 311 310 310 310 310 310
316 315 314 313 312 312 313 313 312 313 315 315 314 313 313 312 310 310 311 311 311 311 311 310 311 312 312 313 315 315 315 315 315 315 316 317 317 317 316 315 314 311 309 308 308 308 309 307 307 307 307 309 309 309 308 308 308 308 308 307 308 308 307 307 307 307 308 309 308 309 309 309 309 308 309 309 309 309 309 309 310 308 305 307 308 308 308
314 314 314 314 314 315 316 316 316 316 315 314 314 313 312 311 311 311 311 311 311 310 309 309 310 311 311 313 313 314 315 316 315 314 315 316 316 315 314 313 313 311 310 309 308 308 309 308 307 307 307 307 308 308 308 308 308 308 307 307 307 307 307 307 307 307 307 307 308 308 308 308 309 310 309 309 308 308 308 308 307 308 308 307 308 308 308
316 317 316 315 315 316 316 317 317 316 316 315 313 312 312 312 311 310 311 312 311 309 308 307 307 311 312 313 313 314 315 315 315 315 315 315 314 314 313 312 312 311 311 310 309 310 309 308 307 306 305 306 307 307 306 306 307 307 307 307 307 308 307 307 307 306 307 307 307 307 307 307 308 308 308 307 307 308 307 307 307 308 307 307 307 307 307
Wind_Speed
10 8 7 8 8 6 6 8 11 12 10 4 9 4 2 4 6 4 6 5 5 3 5 6 7 7 5 5 5 5 4 5 6 8 9 9 8 5 5 4 5 7 8 8 9 10 11 12 12 12 11 11 10 9 8 8 9 10 9 9 10 10 10 10 10 10 9 8 8 9 9 8 9 9 8 8 7 7 7 8 7 8 8 8 7 7 7
7 7 7 7 7 4 7 7 12 13 12 6 2 4 3 5 2 7 9 9 7 4 4 5 6 6 6 5 4 5 6 6 6 7 8 7 5 6 5 4 2 3 4 5 6 7 8 10 11 12 11 11 11 12 11 10 10 9 9 10 9 10 11 10 9 9 9 8 8 9 9 9 9 9 9 8 8 8 8 8 8 7 7 7 8 8 8
5 4 5 6 5 2 3 3 8 11 14 10 1 7 8 8 8 9 11 10 7 4 4 6 6 7 7 8 9 8 6 5 8 4 6 6 6 6 6 5 4 3 2 1 4 7 8 9 10 10 10 10 10 10 10 10 10 10 10 10 10 10 10 9 8 8 7 7 7 8 8 8 8 8 8 7 7 7 7 7 7 6 7 8 8 8 8
3 5 5 2 2 5 1 4 10 11 12 8 3 3 3 5 8 10 10 8 5 4 5 7 8 9 10 10 10 9 8 8 8 8 7 6 6 7 6 6 5 4 3 1 1 3 4 6 8 8 8 8 9 10 10 10 9 9 9 10 10 10 9 8 8 9 8 9 8 7 7 7 7 7 6 6 6 6 7 7 6 7 8 8 8 8 8
3 6 4 3 7 5 2 5 3 7 11 13 1 5 9 7 5 9 6 5 5 6 6 8 8 11 12 11 10 9 10 10 10 10 8 7 7 6 5 5 6 6 5 5 5 4 3 3 3 3 3 6 7 6 6 7 7 9 10 9 9 8 8 7 7 7 8 8 9 9 8 7 6 6 6 6 7 7 7 7 7 7 7 8 8 8 8
3 4 0 4 1 4 3 3 5 4 8 12 10 3 5 6 4 5 5 9 9 9 8 10 11 12 9 8 8 10 9 9 10 10 11 9 8 7 6 5 5 5 4 3 3 3 4 5 3 1 1 3 4 4 5 5 7 7 8 9 9 9 9 8 7 7 7 7 8 7 7 7 6 6 6 7 7 6 6 5 6 7 8 8 7 8 8
2 1 5 1 3 1 3 2 3 5 5 7 9 9 8 7 7 8 11 11 11 10 9 10 11 12 12 12 12 13 12 11 10 10 9 9 8 8 7 6 5 5 4 4 3 3 3 4 5 4 3 2 4 5 6 7 6 7 7 8 9 9 9 8 7 6 5 4 2 2 3 5 6 7 7 6 6 5 4 6 6 6 6 7 6 7 8
3 1 1 1 5 1 5 5 3 4 2 4 5 7 7 9 5 3 8 11 10 10 10 9 9 9 10 12 13 12 11 10 9 9 8 8 8 7 6 5 6 5 5 5 5 5 3 2 3 2 3 3 3 4 3 4 5 6 7 7 7 7 8 7 7 6 5 6 6 5 4 4 5 6 5 3 3 3 4 4 5 3 3 4 5 5 5
2 1 1 2 1 2 1 5 2 3 2 2 3 3 2 0 6 5 4 9 9 10 9 7 4 4 8 11 10 11 10 9 9 9 9 8 8 7 7 6 6 5 5 6 6 4 3 1 3 5 5 2 1 2 4 4 4 5 7 7 6 7 7 6 4 2 2 4 4 4 4 4 5 5 6 5 3 1 5 6 5 4 3 2 1 3 4
1 3 2 1 2 1 3 4 2 2 4 5 5 3 2 4 3 2 1 8 8 9 8 6 4 0 5 9 8 9 9 9 9 9 9 9 9 9 8 7 7 7 6 6 8 8 6 3 1 2 4 5 6 6 5 6 5 4 5 6 6 6 4 3 4 4 0 3 5 6 6 6 5 4 2 3 5 6 3 4 6 2 0 1 2 3 3
3 2 3 3 4 2 2 6 3 3 3 5 10 3 2 1 5 4 3 6 5 6 5 6 1 4 5 6 7 6 8 8 8 8 9 9 8 9 9 9 8 8 7 7 7 8 8 6 3 3 3 4 5 6 5 5 5 5 4 4 4 5 6 5 5 4 4 4 4 3 5 5 4 5 5 4 2 2 3 1 3 2 0 3 3 3 4
2 3 4 3 2 1 3 3 1 3 2 5 6 4 3 6 4 3 1 3 3 4 5 5 8 5 7 6 5 5 7 7 8 8 8 8 9 9 9 9 10 10 9 11 12 11 10 6 4 5 5 6 6 6 6 5 4 3 3 3 3 4 5 5 3 3 4 4 4 2 2 4 4 5 4 4 4 4 5 5 4 2 1 3 5 5 5
3 4 1 1 2 1 1 2 4 2 2 4 4 2 3 3 3 2 2 3 4 4 4 5 9 9 8 8 6 6 6 8 9 8 8 8 9 10 10 9 10 11 12 12 13 12 10 9 8 6 6 7 7 8 8 8 6 4 4 4 3 3 4 4 5 3 4 4 2 2 2 4 3 3 4 4 4 5 5 5 7 5 4 3 6 8 8
3 2 3 0 2 2 2 3 3 0 2 2 1 2 2 2 3 3 3 5 5 6 9 10 9 9 9 8 7 8 9 9 8 8 8 9 9 9 9 10 9 9 12 13 12 11 11 12 11 9 9 10 9 9 9 8 6 5 6 5 5 5 6 7 7 5 5 4 2 2 2 2 3 4 3 2 3 4 4 5 6 7 6 6 8 9 8
1 1 2 1 2 3 3 5 0 2 3 3 2 4 3 3 4 6 6 6 7 10 12 12 11 11 9 8 8 8 8 8 8 7 8 9 10 9 10 11 11 11 12 12 12 11 9 10 9 9 12 14 12 11 12 11 9 7 7 8 8 6 6 7 9 8 7 6 5 3 3 2 2 2 2 3 4 5 4 6 6 7 8 8 9 9 8
1 3 4 0 3 3 3 2 0 1 2 3 5 4 4 4 5 6 7 7 9 12 12 12 10 9 9 8 8 8 7 7 7 7 7 8 9 10 11 11 11 12 13 12 12 11 10 10 9 10 12 12 10 11 11 6 8 8 8 8 7 7 9 8 8 8 7 6 6 6 7 6 4 1 2 3 2 4 5 5 6 6 6 7 8 7 6
2 1 3 1 2 3 2 1 1 1 1 1 3 4 6 6 6 7 8 10 10 11 12 12 11 8 8 8 8 8 6 7 7 7 6 7 8 9 9 10 10 11 12 13 12 12 10 11 9 10 9 11 10 11 6 5 7 8 8 8 8 8 8 8 8 8 7 7 7 7 7 5 5 4 5 5 6 5 6 6 5 5 4 4 5 5 5
2 1 2 2 1 1 2 2 1 0 3 2 4 8 8 7 7 8 9 10 8 8 9 11 9 8 7 8 8 7 7 7 6 6 6 6 7 8 8 9 9 9 10 12 13 13 12 11 9 7 7 8 10 5 3 5 5 7 7 7 7 7 6 6 5 6 7 7 7 8 8 7 8 7 7 7 7 6 6 7 7 5 5 6 5 5 6
2 3 1 2 3 1 2 3 3 3 2 3 3 7 8 9 8 9 10 9 7 6 6 8 8 7 6 7 6 6 6 7 7 7 6 6 6 6 7 6 7 8 9 10 11 12 12 10 9 9 9 8 6 4 5 5 7 5 6 7 7 4 4 5 6 6 7 6 6 7 8 7 6 7 7 6 6 7 7 7 6 6 5 4 5 5 6
0 4 4 2 1 1 1 1 3 6 6 6 5 7 9 9 9 9 7 7 7 7 8 8 8 7 6 7 5 5 6 6 6 6 6 6 5 5 5 6 7 8 9 10 10 10 9 8 8 8 8 7 7 6 6 5 6 6 6 5 5 5 5 5 5 6 7 9 8 6 6 7 6 6 5 5 5 5 4 3 4 5 5 5 4 4 4
3 3 1 3 4 4 3 3 3 4 7 9 9 8 9 9 9 8 6 5 6 7 8 8 8 8 6 5 5 5 4 5 5 6 5 5 5 5 6 5 6 7 7 8 8 9 8 7 8 9 8 7 7 7 6 5 5 7 7 7 6 6 6 6 5 5 5 5 5 5 5 6 7 7 4 4 4 4 4 2 2 3 4 4 3 4 4
4 6 8 10 7 5 3 3 4 4 5 9 11 10 10 10 10 8 9 8 7 8 7 8 9 9 6 4 4 5 3 4 5 5 6 5 5 5 3 3 5 6 6 7 7 7 6 6 7 8 8 7 7 7 6 6 6 7 7 6 7 6 5 4 4 4 4 5 4 4 5 5 6 7 11 11 8 5 4 8 8 2 2 5 4 4 6
2 4 9 6 3 8 5 6 5 4 4 8 10 10 9 9 8 8 10 11 9 8 5 4 8 7 6 5 5 5 4 4 3 4 5 6 5 4 3 5 5 5 5 6 7 6 5 5 6 7 7 7 7 7 6 5 6 7 6 6 6 6 6 5 4 4 4 4 4 4 4 4 5 6 5 8 13 13 11 10 9 11 13 13 13 9 6
2 3 10 6 5 8 6 6 5 4 2 6 8 6 7 8 8 9 8 8 10 8 7 6 6 7 6 5 5 7 6 4 5 5 4 5 5 4 3 4 4 5 5 5 6 5 4 4 5 5 7 7 6 6 6 5 5 6 6 6 6 6 5 4 4 4 4 4 3 3 3 3 3 4 5 6 7 11 12 11 12 12 13 12 11 11 9
2 5 8 4 5 8 7 6 5 4 2 3 8 7 8 8 7 8 9 8 7 9 8 8 6 5 7 7 7 7 6 6 5 5 5 4 4 4 5 5 5 5 4 3 3 3 3 4 5 5 6 5 5 6 6 6 6 5 5 5 6 6 5 5 4 4 3 3 3 3 3 3 3 3 4 5 6 6 6 9 12 13 12 12 11 10 10
5 9 8 6 8 9 8 8 5 4 5 6 9 7 7 7 9 9 8 8 7 8 10 9 9 6 6 7 7 8 8 7 6 6 6 5 5 5 4 5 4 3 3 2 3 3 4 5 5 5 5 5 5 4 5 6 6 5 5 4 5 4 4 4 4 4 3 3 2 2 2 2 2 3 3 3 5 6 7 6 6 8 10 10 9 9 10
7 10 13 11 8 6 8 6 7 7 6 6 10 10 9 10 10 8 7 7 7 7 8 8 8 7 7 7 8 8 8 8 7 6 6 6 6 4 4 3 3 3 3 3 3 2 3 3 3 4 4 4 4 3 4 4 5 5 5 4 4 6 6 4 3 4 3 3 3 2 2 2 2 2 3 3 3 3 3 5 5 6 6 4 4 6 3
9 8 7 10 10 10 7 4 10 9 8 9 10 11 9 9 10 11 11 10 8 7 6 6 7 8 7 5 7 8 7 8 7 6 6 6 4 4 3 4 3 3 3 2 2 3 2 3 3 4 4 4 3 3 4 4 5 5 5 4 4 3 3 3 3 3 3 2 2 2 2 2 2 2 3 3 3 3 2 3 4 5 5 4 4 4 5
8 5 3 4 7 10 9 9 9 9 8 7 9 9 11 12 11 11 10 9 8 8 7 7 7 7 8 6 7 8 7 7 7 7 6 5 4 4 3 3 3 3 3 3 3 2 2 3 3 3 4 4 4 4 4 4 5 5 4 4 3 3 3 2 2 2 3 3 3 2 3 2 2 2 2 2 2 3 3 3 3 3 4 5 5 4 2
6 2 4 9 11 13 14 11 10 10 10 10 11 10 12 14 11 8 8 8 8 8 7 7 7 7 7 8 7 8 8 8 6 5 5 4 3 3 2 1 2 3 3 3 3 3 3 2 2 3 2 3 4 3 3 3 3 4 4 4 4 3 2 2 1 2 3 3 4 4 3 2 2 1 2 2 3 3 3 3 3 3 4 4 3 4 5
6 4 8 9 11 13 13 12 10 10 10 10 10 11 9 11 12 10 8 6 6 7 6 7 7 7 7 6 5 5 5 5 5 4 4 4 3 4 3 3 3 3 4 4 4 3 3 3 3 4 4 3 3 3 3 2 3 3 3 3 3 3 3 3 2 0 2 3 3 2 2 2 1 1 1 1 2 2 3 3 4 3 3 4 4 4 4
10 8 9 9 10 11 10 9 10 10 10 9 11 11 11 12 12 11 9 8 8 8 8 8 8 8 6 4 4 4 4 4 3 3 3 3 3 3 4 4 4 4 4 4 4 4 3 4 5 3 2 2 2 1 1 1 1 2 3 3 3 2 3 3 1 1 1 0 1 1 2 2 2 1 1 1 1 2 2 2 3 3 3 4 4 4 4
13 10 8 8 7 9 10 10 11 11 11 11 10 10 8 8 10 10 9 9 7 6 8 8 7 6 5 5 4 4 4 4 3 3 2 2 2 3 3 3 3 3 3 4 3 3 4 4 3 2 2 2 2 1 0 0 1 1 1 2 2 2 1 1 2 1 0 1 1 1 1 1 2 1 2 1 1 1 2 2 2 3 3 3 3 2 4
15 13 15 17 16 14 14 12 9 11 9 6 7 9 8 8 8 8 8 8 9 9 8 8 7 6 5 5 5 5 5 4 3 3 2 1 1 1 2 2 2 2 2 2 3 3 3 3 3 3 3 2 2 3 3 2 1 0 0 1 1 0 0 1 1 0 0 0 1 1 1 1 1 1 2 1 1 1 1 1 2 2 2 2 2 2 4
8 5 11 14 12 13 14 13 12 11 11 9 7 6 6 7 8 8 8 9 10 8 6 6 6 5 5 5 6 5 5 5 4 4 2 1 1 1 1 1 1 1 2 2 3 3 3 3 3 3 2 3 3 3 2 2 1 0 1 1 1 1 0 0 0 0 1 1 0 1 1 1 1 1 1 2 2 1 1 2 2 2 2 2 2 2 3
7 7 7 7 7 9 11 12 12 13 12 10 10 9 8 8 8 9 10 7 5 7 7 7 6 6 6 6 6 6 5 5 4 3 3 2 1 0 1 1 1 1 1 1 2 3 3 3 4 6 4 3 2 3 3 3 1 2 1 1 1 0 0 0 1 0 1 1 1 1 2 2 2 2 2 2 2 2 2 2 2 3 3 2 3 3 3
6 8 9 9 8 9 10 8 9 10 9 8 8 7 7 8 8 6 6 6 7 8 8 7 7 8 7 5 5 5 5 5 4 3 2 1 1 1 1 1 1 0 0 1 2 3 3 3 5 6 3 2 3 4 6 7 4 4 3 2 2 2 1 1 1 1 1 0 1 1 2 3 3 3 2 3 4 3 3 3 3 2 2 2 3 4 4
6 7 10 9 9 9 9 9 8 9 9 8 7 8 9 9 7 7 6 7 7 7 7 7 7 6 5 5 5 6 5 4 4 4 3 2 1 2 2 1 1 1 1 1 3 3 3 4 5 3 2 3 4 4 5 8 6 3 3 3 3 2 2 2 2 1 2 1 1 1 1 2 2 3 2 2 2 2 3 3 3 4 3 3 3 3 4
6 4 5 6 6 7 8 7 7 7 10 12 8 6 5 7 8 8 7 7 6 6 7 6 6 7 7 7 6 6 6 5 4 4 4 3 1 1 1 1 0 1 3 2 2 2 3 4 3 3 3 3 4 4 5 7 7 3 3 3 3 3 3 3 3 3 3 2 2 3 3 2 2 2 2 3 3 2 3 4 4 3 4 3 3 3 4
8 8 9 9 8 7 8 8 8 8 7 8 11 9 8 9 8 8 8 7 6 6 7 7 7 6 6 6 6 6 5 4 3 3 3 3 2 1 2 2 2 1 1 1 1 2 2 3 3 3 3 3 3 3 4 5 4 3 3 3 3 3 3 4 3 3 3 3 3 3 2 2 2 3 3 3 2 2 2 2 3 3 3 3 3 3 3
9 8 8 8 8 8 9 9 8 8 7 6 5 8 10 10 9 9 9 9 7 6 7 7 7 6 6 6 6 6 5 3 3 3 2 2 2 1 1 1 3 3 2 2 2 2 2 3 3 2 2 2 2 2 2 2 2 1 1 2 2 2 2 2 3 3 3 3 3 3 3 3 2 2 2 2 3 2 1 1 2 3 3 4 4 4 5
9 9 10 9 8 8 8 7 8 8 5 5 6 8 9 10 11 10 9 8 7 6 6 6 7 7 7 6 5 5 4 3 3 3 2 2 1 1 1 2 2 2 4 4 3 2 2 2 2 2 2 2 2 2 4 2 2 2 2 1 2 2 2 2 3 3 2 3 2 2 2 2 2 2 2 2 2 2 2 1 1 2 3 3 3 4 5
11 11 11 10 8 9 9 9 9 9 9 7 7 8 9 8 8 9 8 8 8 7 7 6 7 6 5 6 6 6 5 4 3 3 3 2 2 2 1 2 2 3 4 2 1 2 2 2 2 2 4 3 3 4 3 1 1 2 2 2 2 2 2 2 3 3 3 3 3 2 2 2 2 2 2 2 2 1 1 1 1 1 2 3 3 3 4
11 10 9 10 9 9 9 9 8 8 9 8 8 9 10 8 9 10 10 9 8 8 9 8 7 7 6 6 6 5 5 4 3 3 3 3 3 3 2 1 0 3 4 2 2 2 2 2 2 3 3 4 4 3 1 1 1 0 1 1 2 2 2 3 3 3 4 4 4 4 4 4 5 4 4 3 2 1 0 0 0 0 1 1 2 2 3
11 10 10 10 11 10 9 9 11 11 9 9 9 9 9 9 8 9 10 9 9 9 8 8 8 7 6 6 6 5 4 4 4 4 4 3 2 1 2 2 2 2 2 2 2 2 2 2 4 4 4 4 3 2 1 1 1 1 1 1 0 1 1 1 1 1 1 2 2 2 3 3 3 3 3 2 1 2 1 2 2 1 1 1 2 2 2
10 9 9 10 11 10 9 10 8 9 10 10 9 8 7 8 8 8 8 9 9 9 8 8 8 7 7 7 5 3 3 3 3 3 2 1 1 1 1 1 1 2 4 3 2 2 2 4 5 5 5 4 2 1 2 2 2 1 2 1 2 1 1 1 1 1 1 1 1 2 2 2 2 2 2 3 3 2 2 2 2 2 1 0 1 1 1
10 9 9 9 8 8 9 8 9 11 11 11 10 9 7 7 8 7 7 7 8 8 7 7 7 7 6 6 6 5 5 4 4 3 2 1 2 1 3 3 5 6 3 1 2 2 2 2 4 5 4 4 2 1 2 2 2 2 2 2 2 2 2 2 2 2 1 0 1 2 1 1 1 1 1 1 2 2 2 2 2 2 1 2 2 3 3
11 10 9 9 10 10 10 10 11 10 11 11 11 9 9 8 7 6 6 6 6 6 7 6 5 5 4 5 5 5 4 4 4 4 3 2 2 3 3 3 3 5 5 5 4 4 4 4 4 4 4 3 2 2 2 2 1 1 1 1 1 2 2 2 2 2 2 2 2 2 2 2 2 2 2 3 3 2 1 1 1 1 2 3 3 3 4
8 9 9 9 10 12 11 11 10 10 9 9 10 8 9 9 8 7 7 7 7 7 7 6 6 6 5 5 5 4 3 2 1 2 3 3 3 3 3 5 8 6 3 2 2 1 3 2 3 3 3 2 2 2 2 2 2 2 2 2 2 2 2 2 2 2 3 3 3 3 3 3 3 2 2 1 1 0 0 0 1 1 2 2 2 2 3
8 8 9 8 9 10 10 9 9 9 8 9 9 8 8 8 8 7 7 8 8 7 7 7 6 6 5 5 4 3 3 4 3 2 3 4 4 4 4 3 4 4 3 2 2 1 3 3 2 1 0 1 1 1 1 1 1 0 0 1 0 0 1 1 1 1 1 1 1 1 1 1 1 1 1 0 1 1 1 1 1 3 4 1 2 2 3
8 8 8 8 8 8 9 8 8 9 9 9 9 9 9 9 9 8 8 8 8 8 7 7 6 6 5 4 3 3 3 4 4 4 4 5 4 4 4 4 4 4 4 3 2 1 1 2 1 1 1 1 1 1 0 1 1 0 0 0 1 1 0 0 1 2 3 3 3 2 1 1 1 0 0 1 1 1 1 2 2 2 3 2 2 2 2
5 5 5 6 5 5 4 3 5 6 6 8 8 9 9 8 8 7 7 8 7 8 8 8 8 5 4 4 4 4 4 5 5 5 5 5 5 4 5 5 4 4 4 3 3 2 2 1 2 2 1 1 1 1 1 2 2 1 0 1 1 0 1 1 1 2 2 2 2 2 1 1 1 0 0 1 1 1 1 2 2 2 3 2 2 2 3
Wind_Direction
125 112 92 84 56 8 334 3 4 350 330 240 208 225 157 197 234 278 132 139 117 60 22 17 26 22 25 32 41 63 88 114 114 121 127 130 131 124 130 146 174 188 192 196 195 194 195 194 196 196 195 195 191 189 191 187 186 191 186 186 191 194 200 202 204 202 200 201 202 202 204 204 209 214 216 218 220 225 226 233 237 239 241 245 244 241 238
127 115 102 84 78 355 322 0 352 350 331 305 212 125 151 202 178 124 132 116 86 65 37 27 27 32 42 49 60 69 82 95 79 80 116 116 104 117 108 99 117 179 201 206 209 206 202 198 198 199 197 194 192 192 191 184 185 185 181 187 191 198 206 207 207 202 198 197 198 203 204 207 209 209 213 216 222 225 229 231 234 236 242 245 247 245 243
119 103 88 72 79 267 307 339 358 349 338 286 276 110 114 126 123 129 129 116 92 60 53 61 52 54 61 60 58 60 64 74 110 111 56 48 62 60 65 63 50 53 42 284 227 218 216 211 205 201 196 191 189 193 190 186 185 183 181 185 191 193 201 205 205 204 203 204 205 207 208 210 211 213 215 216 215 220 225 230 237 233 240 246 247 249 248
128 156 123 96 241 240 159 32 11 346 341 287 237 122 123 171 154 147 131 110 92 91 82 76 70 64 54 50 50 53 56 68 70 77 72 62 41 48 39 36 47 46 36 18 317 287 270 246 226 214 205 195 192 197 190 186 180 174 180 187 191 194 197 194 200 215 220 220 217 212 212 214 213 214 216 218 223 223 230 232 225 239 245 247 250 254 256
164 115 142 213 229 207 124 26 15 351 314 312 290 70 56 38 166 151 133 111 97 88 83 77 69 64 52 40 44 51 58 59 66 66 70 69 65 62 45 35 35 43 38 31 27 24 9 337 273 246 218 201 196 201 196 184 167 175 186 187 186 188 189 187 186 195 213 220 223 225 222 217 213 212 213 219 222 224 229 233 238 236 237 244 248 248 253
124 77 309 254 34 10 14 109 153 114 294 309 324 8 356 10 17 110 97 105 98 89 78 74 71 70 66 66 44 48 51 56 59 60 58 60 60 56 51 38 25 16 6 6 12 8 14 10 343 349 150 180 143 148 149 148 178 183 181 190 188 190 195 200 201 199 200 210 219 227 231 230 230 226 222 224 225 226 230 226 230 236 244 245 244 245 247
130 99 303 301 56 287 53 79 155 175 227 260 289 319 6 360 8 97 105 96 93 86 80 81 79 73 66 54 53 48 42 48 56 56 52 45 44 43 44 48 42 28 343 331 316 317 323 1 14 24 41 93 136 144 153 160 166 164 165 171 186 186 180 170 164 160 163 172 178 256 242 239 237 239 240 240 242 242 235 237 232 230 233 238 244 249 252
91 168 42 193 241 306 306 319 348 104 86 302 284 300 321 345 354 12 101 107 100 92 85 78 82 83 76 64 51 46 44 39 45 55 56 52 51 48 37 41 34 25 16 356 330 306 336 326 279 317 27 43 98 119 107 127 150 161 159 157 159 160 161 154 149 155 156 152 153 176 217 223 214 226 234 253 303 309 275 260 264 271 264 254 250 252 247
191 143 198 10 2 342 315 334 263 157 180 205 299 294 334 71 306 334 100 102 109 107 94 86 76 67 74 61 47 38 42 47 45 49 51 49 50 48 46 45 44 35 40 31 19 355 340 235 257 267 250 232 317 95 121 125 143 162 173 164 146 148 141 160 170 128 145 149 143 157 173 224 232 196 170 135 122 9 300 271 248 236 243 250 1 352 333
158 153 106 94 88 235 219 158 156 190 215 178 177 256 250 296 197 217 256 128 149 126 106 63 20 241 75 54 44 28 35 39 50 51 52 54 54 54 51 52 50 48 51 57 53 52 52 54 335 200 186 176 176 166 168 163 158 169 176 166 149 136 127 128 101 83 349 211 182 180 180 196 216 248 236 164 150 140 168 279 282 291 69 62 63 83 86
163 196 188 177 187 193 85 148 206 212 235 218 162 168 296 250 266 171 198 155 129 110 80 37 356 158 83 68 52 37 38 38 39 52 54 59 59 54 50 44 43 43 47 57 62 61 60 56 47 99 94 123 132 124 129 153 176 180 154 72 80 108 120 118 116 140 175 246 256 220 216 208 211 230 231 226 190 104 115 82 307 303 327 114 116 76 65
212 177 204 214 225 96 163 173 264 287 227 197 211 233 161 152 242 286 336 124 118 75 54 54 64 95 116 97 76 55 58 53 48 50 53 51 55 57 58 57 57 53 49 49 49 48 44 29 44 80 87 90 91 98 99 113 128 134 72 89 111 96 109 131 150 150 150 181 206 182 257 248 222 223 229 237 212 155 138 166 207 246 130 133 112 86 74
153 206 156 337 215 162 25 0 329 344 209 235 252 22 81 113 161 3 28 74 64 65 58 72 89 72 84 101 102 82 71 62 55 52 58 58 62 63 62 60 60 62 55 53 53 50 48 41 40 47 67 74 72 72 76 71 60 40 57 88 98 101 125 159 152 155 169 175 131 91 191 233 223 180 186 181 154 158 163 160 149 159 158 123 97 84 77
184 165 219 232 343 64 14 339 321 128 223 214 337 45 43 107 93 64 90 103 93 96 100 101 95 101 104 101 95 84 70 66 56 51 53 60 63 62 59 55 57 64 64 62 54 47 45 48 44 45 59 63 57 56 54 48 40 50 77 84 93 103 96 86 82 70 57 49 72 154 187 211 198 190 192 212 182 156 140 154 150 142 141 119 95 88 82
68 207 158 98 223 109 14 340 283 177 278 23 94 120 94 83 89 104 107 113 113 115 108 105 109 112 105 96 90 80 72 68 58 46 40 50 55 53 52 57 60 67 68 61 56 54 47 49 47 54 63 60 55 51 50 39 33 36 54 72 80 77 83 83 82 72 63 72 76 89 106 132 221 223 188 184 171 143 133 127 123 125 127 117 108 98 88
273 184 201 140 24 8 32 300 277 62 6 101 135 118 109 96 103 110 114 113 124 122 117 117 114 110 106 103 98 87 78 79 76 66 58 58 62 65 63 62 59 66 71 69 66 56 50 47 47 51 64 69 51 47 39 37 54 51 51 56 67 75 81 82 81 76 74 67 58 60 67 65 51 354 183 169 126 107 96 98 109 115 119 119 112 106 100
300 26 63 58 340 340 357 277 350 0 351 218 149 111 118 122 113 121 118 125 124 120 121 117 115 106 99 97 93 90 77 73 70 69 58 57 60 62 64 62 61 66 68 70 68 64 57 55 49 54 55 65 67 59 31 24 53 60 51 51 55 56 57 61 63 63 60 56 50 50 54 64 78 81 83 84 86 82 89 93 96 96 103 106 107 107 99
172 18 0 335 57 38 45 116 286 130 114 92 128 127 118 113 122 126 124 131 119 120 125 121 112 107 112 107 100 98 94 89 82 80 76 67 64 67 66 63 62 72 74 73 71 68 60 57 58 54 54 61 67 56 49 62 66 75 74 64 58 60 60 61 73 83 80 67 54 43 44 41 55 62 74 76 80 77 82 95 104 98 103 103 99 92 89
203 114 151 94 67 13 46 61 79 79 74 91 113 119 116 124 125 123 127 132 128 119 121 112 114 115 113 103 95 94 97 91 86 83 75 60 51 57 65 58 60 61 65 67 66 66 63 53 55 55 54 57 67 73 67 77 83 82 88 92 89 65 55 73 65 63 66 58 53 48 42 38 37 51 56 64 85 97 103 111 113 115 115 113 111 108 103
337 112 125 89 54 328 306 305 115 105 99 90 86 106 117 120 119 120 123 124 118 127 118 122 122 117 113 112 106 103 97 96 92 87 82 83 76 55 62 67 71 71 65 66 62 60 60 56 61 59 52 48 41 50 61 68 80 81 81 87 94 91 76 68 63 61 66 70 68 56 46 46 37 26 34 43 57 49 37 40 94 106 108 112 113 113 114
95 73 125 148 135 109 86 87 65 90 122 120 118 115 118 119 114 112 107 109 124 125 122 128 125 118 109 105 113 107 106 107 99 93 87 78 75 75 74 57 63 73 73 69 64 63 56 49 58 62 60 53 46 48 51 61 76 83 84 80 75 73 71 70 61 54 62 65 69 74 74 63 57 43 12 5 40 73 59 40 335 38 79 101 97 104 112
178 179 168 172 151 154 157 154 129 125 125 125 125 128 125 124 124 123 117 105 102 112 131 137 133 127 126 122 127 114 100 103 106 110 108 99 91 79 65 68 74 79 73 77 74 66 54 49 55 59 57 55 49 49 44 42 52 72 79 83 82 76 74 69 64 64 68 73 70 77 86 92 94 73 59 54 23 23 48 28 38 41 44 85 91 112 88
197 144 159 185 41 118 136 142 136 136 145 132 131 133 133 129 123 122 124 123 118 114 106 121 132 128 131 131 127 116 108 98 107 116 124 120 112 96 89 86 70 71 78 88 90 79 69 61 61 55 52 46 46 44 38 37 41 54 65 71 72 76 75 76 72 76 78 80 77 80 91 98 97 97 87 53 47 38 33 37 29 50 72 77 70 63 99
19 150 153 162 150 140 154 143 139 139 149 115 106 105 117 126 126 125 119 119 122 114 108 93 98 112 111 111 110 100 92 95 117 124 120 116 114 110 86 91 85 79 78 78 82 87 86 83 79 72 65 49 36 39 35 37 45 47 48 62 70 73 77 84 86 86 91 98 104 100 94 94 104 114 106 98 67 45 38 33 44 50 53 62 71 79 74
132 151 138 134 101 105 110 119 113 120 141 118 118 119 123 122 116 119 117 110 110 115 109 100 85 85 100 99 95 94 93 91 98 109 115 113 114 118 116 107 95 84 72 59 61 61 67 72 72 70 70 60 49 42 36 41 52 61 52 58 71 81 89 93 97 98 95 95 96 103 108 107 104 105 112 113 105 97 62 57 65 62 56 56 61 62 68
121 116 107 106 101 111 117 109 109 137 139 124 113 110 104 107 111 106 103 109 110 113 115 116 111 102 95 95 92 99 101 103 115 120 117 118 121 121 111 100 100 102 89 64 47 38 44 42 43 49 55 52 48 47 52 50 51 61 72 70 64 64 88 105 108 115 120 115 108 94 79 85 93 102 97 101 118 127 124 120 95 75 67 58 60 76 63
124 127 118 107 112 133 167 154 156 159 140 127 120 118 114 109 96 92 89 85 87 90 98 105 108 108 101 97 100 98 101 106 105 98 101 106 104 97 98 92 84 74 81 85 80 58 43 40 42 41 40 27 19 27 48 63 62 55 55 66 80 81 77 86 103 114 124 127 126 124 130 123 113 115 113 119 130 137 141 138 133 129 128 102 54 23 72
155 165 154 149 170 176 170 116 126 132 134 126 123 118 119 117 113 110 108 104 93 88 84 90 105 106 98 98 105 105 101 95 92 95 91 82 82 87 87 97 106 114 104 90 75 62 53 49 37 37 35 19 13 22 35 42 56 59 55 48 57 68 70 77 94 112 121 131 134 140 142 129 127 120 140 151 149 139 135 128 132 137 138 124 119 119 119
174 158 14 17 100 111 108 112 117 123 119 116 119 126 127 117 111 109 107 106 108 102 90 82 77 86 96 91 92 95 96 96 89 79 74 60 46 45 54 76 90 88 83 88 87 76 63 55 48 45 37 6 359 16 19 30 40 42 42 39 38 46 70 74 73 98 105 111 115 113 118 127 132 139 159 163 152 156 157 158 152 150 136 140 147 134 168
159 81 106 114 122 127 130 134 136 136 135 137 134 131 128 123 118 114 116 116 115 107 106 104 97 91 91 90 82 84 86 82 75 69 71 67 61 47 46 66 141 125 126 90 65 56 57 46 40 50 42 360 1 0 3 14 30 37 39 37 34 29 27 33 92 111 121 119 114 125 119 107 108 113 142 154 175 181 181 175 177 167 160 165 174 164 165
131 122 128 132 136 145 142 142 139 141 142 144 137 132 131 129 127 127 125 120 115 119 122 115 111 107 98 94 85 81 83 84 80 78 72 65 59 46 25 14 66 73 69 67 61 63 63 61 50 44 14 344 347 351 342 351 7 14 34 41 50 43 24 6 12 57 127 136 139 142 119 120 99 127 132 170 174 184 183 187 185 193 188 184 193 186 165
126 123 131 143 148 146 133 137 142 148 150 146 142 144 146 142 143 143 143 144 142 139 135 130 130 123 116 110 109 108 103 97 88 76 65 60 57 51 42 32 51 65 68 64 59 55 59 71 72 63 47 33 356 334 317 333 349 358 19 14 21 37 38 340 325 41 313 95 104 84 83 96 102 103 135 171 185 185 191 191 192 198 199 202 207 194 162
125 123 138 150 142 146 148 160 153 157 158 164 164 154 155 152 148 150 151 148 143 149 148 146 141 138 134 128 122 115 106 96 86 79 65 54 36 31 30 40 32 21 31 28 14 17 29 35 33 41 66 86 89 93 113 56 7 349 14 6 13 26 35 54 16 341 255 281 322 17 28 36 34 25 43 61 139 201 209 204 196 199 210 218 219 187 175
159 171 176 175 166 165 166 173 169 161 168 160 143 150 154 155 150 148 148 152 156 157 158 155 151 142 143 144 136 130 133 139 132 116 89 75 31 24 20 21 11 26 31 355 6 11 11 6 359 10 21 32 69 89 110 139 146 191 1 318 336 17 314 124 170 275 52 36 50 35 12 346 342 358 0 342 338 290 263 237 223 216 206 208 186 163 102
168 158 161 169 172 163 157 160 166 165 160 155 156 165 156 155 154 155 155 158 164 167 153 141 139 146 148 145 141 149 155 148 146 141 129 83 46 31 52 214 193 173 77 49 31 19 353 334 338 330 341 15 23 35 70 88 103 82 128 200 269 293 353 299 290 353 340 52 331 275 267 286 325 324 287 294 291 289 251 240 243 226 215 196 162 152 138
130 124 143 152 155 160 159 160 165 166 167 165 164 163 163 164 156 150 164 163 135 134 143 145 145 148 149 148 149 150 147 141 139 138 132 115 83 141 179 194 210 224 126 123 56 358 340 347 352 333 321 353 9 25 28 12 47 54 73 36 10 306 203 298 344 338 351 326 301 322 320 340 315 305 313 300 288 271 272 247 229 220 220 199 173 166 155
155 146 154 158 157 162 166 160 160 163 166 158 150 148 150 161 164 147 130 131 144 146 144 146 150 153 152 147 137 133 136 143 146 140 131 116 117 123 97 88 68 57 26 170 40 359 356 18 357 351 349 351 6 18 20 5 354 6 5 357 9 6 342 318 329 311 304 314 326 325 321 291 281 291 294 294 286 287 280 270 256 242 228 192 176 176 165
154 151 153 155 155 157 164 170 168 161 150 145 152 161 161 155 149 146 145 141 141 144 147 149 144 129 124 126 132 137 140 141 139 137 137 143 160 158 148 178 160 180 207 55 8 355 30 16 12 21 36 34 23 21 15 11 6 351 0 357 1 357 358 349 339 345 334 353 345 305 297 306 303 292 289 281 272 275 277 267 258 254 239 199 186 177 179
130 122 131 140 142 142 137 141 157 163 160 158 156 143 134 136 142 139 139 140 139 140 137 128 127 133 138 142 140 141 145 149 151 151 152 141 158 190 172 206 84 45 54 36 7 23 25 20 11 34 44 34 24 22 18 16 13 1 356 344 344 341 345 342 346 343 344 337 327 342 326 328 322 314 300 295 288 268 253 264 268 245 225 204 190 184 174
151 154 152 150 149 146 145 155 166 172 177 158 148 150 151 145 148 143 135 133 143 148 136 139 143 143 150 147 148 152 152 152 149 156 152 150 160 180 193 186 188 154 80 49 62 71 48 21 35 46 42 35 21 7 9 12 8 6 346 342 342 338 342 340 332 323 330 326 333 328 318 325 324 325 324 316 299 282 292 243 228 223 222 187 191 161 180
157 149 150 152 151 157 157 155 163 166 161 167 152 139 151 150 146 141 146 146 149 151 145 151 151 149 156 160 162 159 155 150 161 157 154 174 185 181 225 138 103 129 136 116 73 68 43 28 30 33 42 20 5 355 341 346 332 319 315 314 304 309 305 304 309 306 312 320 318 314 323 322 322 304 324 324 331 330 305 267 239 209 212 207 196 190 185
160 150 151 152 154 159 158 150 140 142 145 144 139 143 147 150 151 148 144 139 144 152 150 156 157 158 161 159 157 150 157 157 167 173 195 225 261 234 215 115 97 119 113 121 118 124 99 80 52 46 35 348 307 339 323 305 299 296 284 273 269 263 268 270 269 279 276 279 295 299 307 310 318 319 324 312 312 320 317 295 245 220 206 204 196 189 180
156 158 159 159 157 154 150 153 159 155 146 147 148 149 148 148 133 130 138 143 148 152 154 154 153 146 148 157 162 169 164 165 177 178 196 205 234 243 306 81 123 113 120 105 85 78 69 56 42 49 0 330 347 354 302 281 301 298 292 281 272 266 263 277 287 283 278 276 270 276 286 290 291 295 292 294 299 295 280 269 246 201 196 190 185 181 179
163 159 157 155 158 158 153 151 148 142 144 152 154 153 153 150 149 148 151 154 155 159 161 162 162 163 166 169 174 175 174 175 187 185 198 183 198 207 231 257 246 117 117 103 88 73 81 67 50 29 30 35 37 18 26 40 11 8 322 298 285 283 280 270 268 270 266 265 268 269 268 272 272 272 280 284 277 272 353 339 345 191 186 192 167 161 163
166 164 163 160 151 148 153 153 159 167 156 142 149 156 158 154 154 154 153 155 159 162 163 161 163 165 169 173 180 183 178 182 187 179 196 189 215 156 111 182 162 181 120 107 93 87 77 59 43 44 47 49 47 7 0 38 42 47 49 30 356 324 316 312 301 299 295 281 279 282 283 277 271 268 260 262 298 283 285 290 299 302 245 182 134 148 148
160 159 152 144 152 164 167 161 145 124 126 137 145 154 159 154 153 155 156 157 159 165 166 164 165 169 170 172 165 139 147 168 179 200 232 291 331 55 82 126 123 109 116 127 80 76 76 61 46 52 52 55 35 15 49 45 37 44 43 33 11 20 13 24 34 16 356 314 281 266 253 252 262 269 273 261 253 263 275 281 282 266 261 168 79 94 114
155 152 159 158 151 142 131 127 130 135 140 144 151 160 167 162 158 159 161 160 158 155 156 161 168 169 173 171 167 173 181 181 185 190 211 195 176 184 136 137 124 127 141 101 65 52 31 44 51 58 62 54 4 31 52 45 30 35 32 31 32 30 25 29 40 43 355 352 7 349 353 321 309 310 263 259 251 250 238 215 233 220 198 170 171 158 172
159 159 158 149 140 137 134 136 143 153 163 168 163 155 160 161 158 153 152 150 147 151 159 163 159 157 164 176 188 188 191 189 182 169 179 181 169 156 169 189 151 123 115 109 100 84 76 62 62 61 62 41 36 36 39 43 49 53 49 45 30 26 4 11 5 4 353 347 324 302 295 291 308 310 312 297 296 294 292 246 192 183 181 182 181 182 182
155 148 141 137 139 147 150 156 160 164 172 161 150 148 151 151 149 146 151 155 156 160 166 163 162 166 172 182 184 185 176 196 224 117 146 174 166 165 147 125 131 136 137 101 91 96 101 78 77 70 56 11 25 31 14 23 26 24 35 38 41 44 42 37 19 8 356 348 334 310 301 296 307 315 322 329 322 349 47 118 120 155 153 150 154 166 181
142 131 139 148 154 162 164 163 169 169 154 155 157 148 152 151 158 168 166 165 166 165 166 170 175 174 183 178 187 176 169 176 164 137 146 154 151 152 152 166 151 143 136 124 131 119 135 162 166 150 324 332 11 351 18 346 340 338 17 68 47 145 73 13 169 206 323 325 324 305 288 291 335 18 339 50 87 101 120 119 115 83 75 160 171 177 188
155 162 165 165 165 166 169 167 164 153 158 160 154 154 158 169 167 159 165 163 164 167 173 172 177 179 185 188 185 173 163 166 164 163 159 158 164 160 163 157 155 161 162 177 173 173 168 204 203 196 218 252 279 271 303 354 325 154 232 318 34 341 60 14 347 8 11 358 348 0 0 15 46 8 139 102 127 139 145 153 157 171 189 191 194 203 203
149 137 127 131 131 125 120 96 104 134 136 141 151 158 166 164 152 157 159 162 166 171 173 172 179 184 193 188 182 170 162 161 162 163 163 159 165 169 161 169 174 173 185 193 187 199 213 191 202 204 230 248 230 220 199 264 265 268 201 161 251 240 350 335 334 344 7 352 354 14 33 25 25 197 188 153 152 159 175 184 189 193 201 210 205 214 221